Torna al catalogo

COSMOS 2435

GLONASS

AttivoNavigazioneMEO
NORAD 32394·PAYLOAD·🇷🇺 Russia

Lanciato Dec 25, 2007 da Baikonur Cosmodrome

Loading…

Prossimi Passaggi (prossime 24 ore)

TLE

AggiornatoSource: Space-Track

Epoca: Sep 14, 2026, 00:21 UTC

1 32394U 07065B   26257.01520103  .00000018  00000-0  00000-0 0  9992
2 32394  64.3226 188.9166 0025257 358.4227   1.5730  2.13115365145639

Traccia COSMOS 2435 in tempo reale con AllMySat

Download on the App Store